Zurück zum Katalog

ORBCOMM FM 28

AktivKommunikationLEO
NORAD 25482·PAYLOAD·🇺🇸 United States

Gestartet Sep 23, 1998 von Cape Canaveral Space Force Station

Loading…

Nächste Überflüge (nächste 24 Stunden)

TLE

AktuellSource: Space-Track

Epoche: Sep 14, 2026, 14:17 UTC

1 25482U 98053H   26257.59574903  .00000542  00000-0  21848-3 0  9997
2 25482  45.0042 207.7447 0004279  29.7423 330.3669 14.39316669463807

Verfolge ORBCOMM FM 28 in Echtzeit mit AllMySat

Download on the App Store